Date String (YYYY-MM-DD hh:mm:ss) UTC,Instrument flags,absolute air pressure of the measurement (hPa),sample flow rate (lpm),inlet stack bypass flow (lpm),air temperature of the measurement (°C),ambient temperature measured by the external sensor (°C),aerosol sample conditioner tube jacket temperature (°C),OPC LED temperature (°C),internal box temperature (°C),relative humidity of the measurement (%),span deviation,mass concentration of particles derived from Lorenz-Mie calculation of OPC scattering (μg/m³),mass concentration of particles derived from Lorenz-Mie calculation of OPC scattering (μg/m³),mass concentration of particles derived from Lorenz-Mie calculation of OPC scattering (μg/m³)
DateTimeUTC,F1_M11,P_M11,Q1_M11,Q2_M11,T1_M11,T2_M11,T3_M11,T4_M11,T5_M11,U1_M11,ZSPAN_M11,X2_M11,X0_M11,X1_M11
2023-11-29 10:00:00,SystemResetWarning,0828.4,5.00,000.00,018.8,017.9,000.0,027.3,020.0,8.8,0000.0,0002.01,0002.97,0001.85
2023-11-29 10:01:00,SystemResetWarning,0828.4,4.99,000.00,018.8,017.9,000.0,027.3,020.0,8.4,0000.0,0002.04,0002.99,0001.88
2023-11-29 10:02:00,SystemResetWarning,0828.4,5.00,000.00,018.8,017.9,000.0,027.3,020.0,7.9,0000.0,0002.06,0003.06,0001.88
2023-11-29 10:03:00,SystemResetWarning,0828.4,4.99,000.00,018.8,017.9,000.0,027.3,020.0,7.7,0000.0,0002.11,0003.19,0001.89
2023-11-29 10:04:00,SystemResetWarning,0828.4,4.99,000.00,018.8,017.9,000.0,027.3,020.0,7.4,0000.0,0002.14,0003.28,0001.91
2023-11-29 10:05:00,SystemResetWarning,0828.4,5.01,000.00,018.8,017.9,000.0,027.3,020.0,7.4,0000.0,0002.20,0003.32,0002.00
2023-11-29 10:06:00,SystemResetWarning,0828.4,5.01,000.00,018.8,017.9,000.0,027.3,020.0,7.8,0000.0,0002.29,0003.46,0002.10
2023-11-29 10:07:00,SystemResetWarning,0828.4,5.00,000.00,018.8,017.8,000.0,027.3,020.0,7.7,0000.0,0002.28,0003.42,0002.11
2023-11-29 10:08:00,SystemResetWarning,0828.3,5.00,000.00,018.8,017.8,000.0,027.3,020.0,7.9,0000.0,0002.22,0003.33,0002.05
2023-11-29 10:09:00,SystemResetWarning,0828.4,4.99,000.00,018.8,017.8,000.0,027.3,020.0,7.8,0000.0,0002.13,0003.23,0001.95
2023-11-29 10:10:00,SystemResetWarning,0828.4,4.99,000.00,018.8,017.8,000.0,027.3,020.0,7.9,0000.0,0002.00,0002.57,0001.83
2023-11-29 10:11:00,SystemResetWarning,0828.4,5.01,000.00,018.8,017.9,000.0,027.3,020.0,8.0,0000.0,0001.91,0002.47,0001.74
2023-11-29 10:12:00,SystemResetWarning,0828.3,5.00,000.00,018.8,017.9,000.0,027.3,020.0,8.1,0000.0,0001.89,0002.49,0001.70
2023-11-29 10:13:00,SystemResetWarning,0828.3,5.01,000.00,018.8,017.9,000.0,027.2,020.0,8.2,0000.0,0001.89,0002.51,0001.69
2023-11-29 10:14:00,SystemResetWarning,0828.3,5.00,000.00,018.8,017.9,000.0,027.2,020.0,7.9,0000.0,0001.85,0002.43,0001.66
2023-11-29 10:15:00,SystemResetWarning,0828.3,5.00,000.00,018.8,017.9,000.0,027.2,020.0,7.9,0000.0,0001.81,0002.37,0001.62
2023-11-29 10:16:00,SystemResetWarning,0828.3,5.00,000.00,018.8,017.9,000.0,027.2,020.0,8.1,0000.0,0001.77,0002.32,0001.59
2023-11-29 10:17:00,SystemResetWarning,0828.3,5.00,000.00,018.8,017.9,000.0,027.2,020.0,8.2,0000.0,0001.76,0002.31,0001.55
2023-11-29 10:18:00,SystemResetWarning,0828.3,5.00,000.00,018.8,017.9,000.0,027.3,020.0,8.3,0000.0,0001.85,0002.44,0001.62
2023-11-29 10:19:00,SystemResetWarning,0828.3,5.00,000.00,018.8,017.9,000.0,027.3,020.0,8.3,0000.0,0001.97,0002.60,0001.72
2023-11-29 10:20:00,SystemResetWarning,0828.3,5.01,000.00,018.8,017.9,000.0,027.3,020.0,8.3,0000.0,0002.08,0002.72,0001.83
2023-11-29 10:21:00,SystemResetWarning,0828.3,5.00,000.00,018.8,017.9,000.0,027.2,020.0,8.2,0000.0,0002.21,0002.86,0001.96
2023-11-29 10:22:00,SystemResetWarning,0828.2,5.00,000.00,018.8,017.9,000.0,027.3,020.0,8.0,0000.0,0002.31,0002.94,0002.06
2023-11-29 10:23:00,SystemResetWarning,0828.1,5.00,000.00,018.8,017.9,000.0,027.2,020.0,8.0,0000.0,0002.35,0003.01,0002.09
2023-11-29 10:24:00,SystemResetWarning,0828.1,4.99,000.00,018.8,017.9,000.0,027.2,020.0,8.0,0000.0,0002.36,0003.02,0002.11
2023-11-29 10:25:00,SystemResetWarning,0828.1,4.99,000.00,018.8,017.9,000.0,027.2,020.0,8.1,0000.0,0002.35,0003.01,0002.10
2023-11-29 10:26:00,SystemResetWarning,0828.1,5.01,000.00,018.8,017.9,000.0,027.2,020.0,8.2,0000.0,0002.33,0002.96,0002.08
2023-11-29 10:27:00,SystemResetWarning,0828.2,5.00,000.00,018.8,017.9,000.0,027.2,020.0,8.2,0000.0,0002.32,0002.96,0002.06
2023-11-29 10:28:00,SystemResetWarning,0828.2,5.01,000.00,018.8,017.9,000.0,027.2,020.0,8.3,0000.0,0002.27,0002.88,0002.05
2023-11-29 10:29:00,SystemResetWarning,0828.2,5.00,000.00,018.8,017.9,000.0,027.2,020.0,8.3,0000.0,0002.21,0002.79,0002.01
2023-11-29 10:30:00,SystemResetWarning,0828.2,4.99,000.00,018.8,017.9,000.0,027.2,020.0,8.3,0000.0,0002.19,0002.74,0001.99
2023-11-29 10:31:00,SystemResetWarning,0828.1,4.99,000.00,018.8,017.9,000.0,027.2,020.0,8.3,0000.0,0002.21,0002.77,0001.99
2023-11-29 10:32:00,SystemResetWarning,0828.1,5.01,000.00,018.8,017.9,000.0,027.2,020.0,8.4,0000.0,0002.22,0002.77,0002.00
2023-11-29 10:33:00,SystemResetWarning,0828.1,5.01,000.00,018.8,017.9,000.0,027.2,020.0,8.5,0000.0,0002.25,0002.81,0002.02
2023-11-29 10:34:00,SystemResetWarning,0828.1,5.01,000.00,018.8,017.8,000.0,027.2,020.0,8.7,0000.0,0002.27,0002.84,0002.04
2023-11-29 10:35:00,SystemResetWarning,0828.1,5.00,000.00,018.8,017.8,000.0,027.3,020.0,8.9,0000.0,0002.27,0003.60,0002.06
2023-11-29 10:36:00,SystemResetWarning,0828.1,4.99,000.00,018.8,017.8,000.0,027.3,020.0,8.9,0000.0,0002.27,0003.77,0002.08
2023-11-29 10:37:00,SystemResetWarning,0828.1,4.99,000.00,018.8,017.8,000.0,027.3,020.0,8.7,0000.0,0002.30,0003.77,0002.11
2023-11-29 10:38:00,SystemResetWarning,0828.1,5.01,000.00,018.8,017.8,000.0,027.3,020.0,8.8,0000.0,0002.33,0003.82,0002.14
2023-11-29 10:39:00,SystemResetWarning,0828.1,5.01,000.00,018.8,017.8,000.0,027.3,020.0,8.5,0000.0,0002.38,0004.10,0002.18
2023-11-29 10:40:00,SystemResetWarning,0828.1,4.99,000.00,018.8,017.7,000.0,027.3,020.0,8.6,0000.0,0002.46,0004.52,0002.26
2023-11-29 10:41:00,SystemResetWarning,0827.9,4.99,000.00,018.8,017.7,000.0,027.3,020.0,8.8,0000.0,0002.59,0004.82,0002.36
2023-11-29 10:42:00,SystemResetWarning,0827.8,5.00,000.00,018.8,017.7,000.0,027.3,020.0,8.9,0000.0,0002.68,0004.95,0002.46
2023-11-29 10:43:00,SystemResetWarning,0827.8,5.00,000.00,018.8,017.7,000.0,027.2,020.0,8.8,0000.0,0002.72,0004.97,0002.51
2023-11-29 10:44:00,SystemResetWarning,0827.8,5.00,000.00,018.8,017.7,000.0,027.2,020.0,8.9,0000.0,0002.78,0005.21,0002.57
2023-11-29 10:45:00,SystemResetWarning,0827.9,5.00,000.00,018.8,017.7,000.0,027.2,020.0,8.8,0000.0,0002.79,0006.90,0002.59
2023-11-29 10:46:00,SystemResetWarning,0827.9,5.00,000.00,018.8,017.7,000.0,027.3,020.0,8.9,0000.0,0002.87,0006.57,0002.66
2023-11-29 10:47:00,SystemResetWarning,0827.9,5.00,000.00,018.8,017.7,000.0,027.2,020.0,8.8,0000.0,0002.97,0006.43,0002.72
2023-11-29 10:48:00,SystemResetWarning,0827.8,5.00,000.00,018.7,017.7,000.0,027.3,020.0,8.8,0000.0,0003.08,0006.60,0002.81
2023-11-29 10:49:00,SystemResetWarning,0827.8,5.00,000.00,018.8,017.7,000.0,027.2,020.0,9.0,0000.0,0003.14,0006.67,0002.89
2023-11-29 10:50:00,SystemResetWarning,0827.8,5.00,000.00,018.8,017.7,000.0,027.2,020.0,9.1,0000.0,0003.17,0006.46,0002.96
2023-11-29 10:51:00,SystemResetWarning,0827.8,5.01,000.00,018.8,017.7,000.0,027.3,020.0,9.4,0000.0,0003.18,0006.21,0002.98
2023-11-29 10:52:00,SystemResetWarning,0827.8,4.99,000.00,018.8,017.7,000.0,027.3,020.0,9.6,0000.0,0003.17,0006.18,0002.98
2023-11-29 10:53:00,SystemResetWarning,0827.8,4.99,000.00,018.8,017.7,000.0,027.2,020.0,9.7,0000.0,0003.18,0006.20,0002.98
2023-11-29 10:54:00,SystemResetWarning,0827.8,4.99,000.00,018.8,017.7,000.0,027.2,020.0,9.9,0000.0,0003.19,0006.24,0003.00
2023-11-29 10:55:00,SystemResetWarning,0827.8,5.01,000.00,018.8,017.7,000.0,027.2,020.0,9.8,0000.0,0003.21,0006.08,0003.04
2023-11-29 10:56:00,SystemResetWarning,0827.8,5.01,000.00,018.7,017.6,000.0,027.2,020.0,9.4,0000.0,0003.26,0005.45,0003.12
2023-11-29 10:57:00,SystemResetWarning,0827.8,5.01,000.00,018.7,017.6,000.0,027.2,020.0,9.2,0000.0,0003.32,0005.51,0003.17
2023-11-29 10:58:00,SystemResetWarning,0827.8,4.99,000.00,018.8,017.6,000.0,027.2,020.0,9.5,0000.0,0003.37,0006.31,0003.22
2023-11-29 10:59:00,SystemResetWarning,0827.8,4.98,000.00,018.8,017.6,000.0,027.2,020.0,9.0,0000.0,0003.42,0006.41,0003.28
